DW7322 Weather Reports


Display with metric or nautical units.
time (UTC)temp
F
wind
direction
speed
MPH
gust
MPH
rain 1hr
in
rain 24hr
in
rain mn
in
humidity
%
barometer
mb
20230206064602 22 316 0.0 0.0 0.00 0.07 0.00 93 1023.5
20230206063058 23 316 0.0 0.0 0.00 0.07 0.00 94 1023.5
20230206061526 23 316 0.0 1.0 0.00 0.07 0.00 93 1023.4
20230206060043 24 316 0.0 0.0 0.00 0.07 0.07 93 1023.3
20230206054536 25 316 0.0 0.0 0.00 0.07 0.07 94 1023.0
20230206053007 24 316 0.0 0.0 0.00 0.07 0.07 93 1022.9
20230206051554 24 315 0.0 0.0 0.00 0.07 0.07 92 1022.6
20230206050105 24 316 0.0 0.0 0.00 0.08 0.07 92 1022.2
20230206044508 24 316 0.0 0.0 0.00 0.08 0.07 91 1022.3
20230206043048 25 316 0.0 0.0 0.00 0.08 0.07 92 1022.0
20230206041602 25 316 0.0 0.0 0.00 0.08 0.07 91 1021.9
20230206040037 25 316 0.0 1.0 0.00 0.09 0.07 91 1021.9
20230206034526 25 315 0.0 0.0 0.00 0.09 0.07 89 1021.9
20230206033050 26 315 0.0 0.0 0.00 0.09 0.07 88 1021.9
20230206031502 27 316 0.0 1.0 0.00 0.09 0.07 87 1021.7
20230206030046 29 315 0.0 1.0 0.00 0.09 0.07 87 1021.7
20230206024528 30 316 0.0 5.0 0.00 0.09 0.07 87 1021.8
20230206023101 30 312 1.0 3.0 0.00 0.09 0.07 86 1021.5
20230206023007 30 312 1.0 3.0 0.00 0.09 0.07 86 1021.5
20230206021535 30 293 0.0 3.0 0.00 0.09 0.07 86 1021.4
20230206020051 31 289 1.0 3.0 0.00 0.10 0.07 87 1021.0
20230206014550 31 304 1.0 2.0 0.00 0.10 0.07 87 1020.7
20230206013016 31 300 0.0 3.0 0.00 0.10 0.07 87 1020.5
20230206011528 31 290 1.0 3.0 0.00 0.10 0.07 87 1020.5
20230206010022 31 293 0.0 1.0 0.00 0.10 0.07 87 1020.2
20230206004546 31 293 0.0 2.0 0.00 0.10 0.07 86 1019.9
20230206003008 31 293 1.0 2.0 0.00 0.10 0.07 86 1019.6
20230206001525 32 294 1.0 2.0 0.00 0.10 0.07 85 1019.2
20230206000100 32 304 1.0 3.0 0.00 0.10 0.07 85 1019.1
20230205234554 32 311 0.0 2.0 0.00 0.10 0.07 85 1018.8
20230205233024 33 298 0.0 2.0 0.00 0.10 0.07 84 1018.5
20230205231606 33 299 1.0 3.0 0.00 0.10 0.07 83 1018.3
20230205230113 34 284 1.0 4.0 0.00 0.10 0.07 82 1018.0
20230205224519 35 292 2.0 5.0 0.00 0.10 0.07 81 1017.8
20230205223038 35 291 2.0 4.0 0.00 0.10 0.07 80 1017.5
20230205221558 36 295 1.0 5.0 0.00 0.10 0.07 79 1017.3
20230205220121 36 295 1.0 3.0 0.00 0.10 0.07 80 1017.1
20230205214529 36 342 1.0 5.0 0.00 0.10 0.07 78 1016.7
20230205213040 37 291 2.0 6.0 0.00 0.10 0.07 77 1016.4
20230205211503 37 306 1.0 4.0 0.01 0.10 0.07 77 1016.0
20230205210002 37 286 1.0 5.0 0.01 0.10 0.07 78 1015.6
20230205204554 38 312 2.0 4.0 0.01 0.10 0.07 77 1015.3
20230205203046 38 311 2.0 6.0 0.01 0.10 0.07 77 1015.0
20230205201603 38 312 2.0 5.0 0.01 0.09 0.07 78 1014.8
20230205201502 38 300 2.0 5.0 0.01 0.09 0.06 78 1014.8
20230205200002 37 297 3.0 5.0 0.01 0.09 0.06 78 1014.6
20230205194538 37 288 2.0 6.0 0.01 0.09 0.06 78 1014.2
20230205193106 37 300 3.0 5.0 0.02 0.09 0.06 78 1014.2
20230205191519 37 312 3.0 7.0 0.01 0.08 0.05 79 1014.1
20230205190042 36 325 3.0 6.0 0.01 0.08 0.05 79 1013.8
20230205184601 36 288 3.0 6.0 0.02 0.08 0.05 79 1013.8
20230205183034 36 292 4.0 6.0 0.01 0.07 0.04 78 1013.5
20230205181536 36 317 3.0 6.0 0.02 0.07 0.04 78 1013.5
20230205180105 36 280 2.0 7.0 0.02 0.07 0.04 80 1013.5
20230205174554 36 303 3.0 5.0 0.02 0.06 0.03 80 1013.6
20230205173020 36 299 3.0 6.0 0.02 0.06 0.03 79 1013.5
20230205171545 37 291 4.0 7.0 0.01 0.05 0.02 79 1013.6
20230205170110 36 282 3.0 6.0 0.01 0.05 0.02 80 1013.5
20230205164515 37 312 3.0 5.0 0.00 0.04 0.01 78 1013.2
20230205163030 37 289 1.0 4.0 0.00 0.04 0.01 81 1013.2
20230205161505 36 295 2.0 6.0 0.00 0.04 0.01 83 1013.1
20230205160112 35 245 2.0 6.0 0.00 0.04 0.01 83 1013.1
20230205154519 35 285 1.0 4.0 0.00 0.04 0.01 85 1012.7
20230205153034 34 270 0.0 2.0 0.00 0.04 0.01 86 1012.7
20230205151558 33 271 1.0 4.0 0.00 0.04 0.01 86 1012.9
20230205150006 32 274 0.0 3.0 0.00 0.04 0.01 87 1013.0
20230205144533 31 263 0.0 2.0 0.00 0.04 0.01 86 1013.0
20230205143125 30 235 0.0 0.0 0.00 0.04 0.01 89 1012.5
20230205141525 29 235 0.0 0.0 0.00 0.04 0.01 90 1012.6
20230205140108 28 235 0.0 0.0 0.00 0.04 0.01 91 1012.4
20230205134600 28 235 0.0 0.0 0.00 0.04 0.01 91 1012.4
20230205134502 28 235 0.0 0.0 0.00 0.04 0.01 91 1012.4
20230205133028 27 235 0.0 0.0 0.00 0.04 0.01 90 1012.2
20230205131541 28 236 0.0 0.0 0.00 0.04 0.01 89 1012.4
20230205130110 28 235 0.0 0.0 0.00 0.04 0.01 88 1012.3
20230205124601 29 235 0.0 0.0 0.00 0.04 0.01 88 1012.3
20230205123012 30 235 0.0 1.0 0.00 0.04 0.01 88 1012.4
20230205121533 31 231 0.0 2.0 0.00 0.04 0.01 87 1012.4
20230205120056 31 222 1.0 3.0 0.00 0.04 0.01 86 1012.4
20230205114552 32 222 1.0 4.0 0.00 0.04 0.01 86 1012.5
20230205113106 32 229 1.0 2.0 0.00 0.04 0.01 85 1012.5
20230205111526 32 231 1.0 3.0 0.00 0.04 0.01 85 1012.5
20230205110018 32 238 2.0 4.0 0.00 0.04 0.01 84 1012.8
20230205104540 33 229 1.0 3.0 0.00 0.04 0.01 83 1013.0
20230205103058 34 224 1.0 3.0 0.00 0.04 0.01 82 1012.8
20230205101524 34 242 0.0 5.0 0.00 0.04 0.01 82 1012.7
20230205100101 33 231 2.0 4.0 0.00 0.04 0.01 83 1012.4
20230205094543 33 218 2.0 4.0 0.00 0.04 0.01 83 1012.7
20230205093024 34 210 2.0 4.0 0.00 0.04 0.01 82 1012.9
20230205091531 34 217 2.0 4.0 0.00 0.04 0.01 82 1012.9
20230205090101 34 226 1.0 4.0 0.00 0.04 0.01 82 1012.9
20230205084558 34 213 2.0 5.0 0.00 0.04 0.01 82 1012.9
20230205083015 34 216 2.0 5.0 0.00 0.04 0.01 82 1013.1
20230205081546 34 238 2.0 5.0 0.01 0.04 0.01 81 1013.4
20230205080110 34 233 2.0 4.0 0.01 0.04 0.01 81 1013.6
20230205074543 35 213 3.0 6.0 0.01 0.04 0.01 81 1013.5
20230205073049 35 214 2.0 6.0 0.01 0.04 0.01 80 1013.4
20230205071502 35 224 4.0 6.0 0.00 0.03 0.00 80 1013.6
20230205070111 36 217 3.0 5.0 0.00 0.03 0.00 79 1013.8